| time (UTC) | temp C | wind direction | speed KPH | gust KPH | rain 1hr cm | rain 24hr cm | rain mn cm | humidity % | barometer mb |
| 20260506092413 | 17 | 145 | 3.2 | 8.0 | 0.00 | 0.03 | 0.00 | 61 | 1007.8 |
| 20260506091911 | 17 | 219 | 1.6 | 8.0 | 0.00 | 0.03 | 0.00 | 63 | 1007.8 |
| 20260506091413 | 16 | 224 | 3.2 | 8.0 | 0.00 | 0.03 | 0.00 | 65 | 1007.8 |
| 20260506090910 | 16 | 223 | 1.6 | 6.4 | 0.00 | 0.03 | 0.00 | 64 | 1007.9 |
| 20260506090409 | 16 | 123 | 3.2 | 8.0 | 0.00 | 0.03 | 0.00 | 66 | 1007.8 |
| 20260506085908 | 16 | 169 | 3.2 | 11.3 | 0.00 | 0.03 | 0.00 | 66 | 1007.8 |
| 20260506085408 | 15 | 109 | 3.2 | 11.3 | 0.00 | 0.03 | 0.00 | 67 | 1007.8 |
| 20260506084904 | 16 | 188 | 1.6 | 8.0 | 0.00 | 0.03 | 0.00 | 66 | 1007.8 |
| 20260506084404 | 15 | 166 | 4.8 | 8.0 | 0.00 | 0.03 | 0.00 | 67 | 1007.8 |
| 20260506083902 | 15 | 305 | 0.0 | 4.8 | 0.00 | 0.03 | 0.00 | 70 | 1007.8 |
| 20260506083403 | 15 | 300 | 0.0 | 4.8 | 0.00 | 0.03 | 0.00 | 72 | 1007.9 |
| 20260506082902 | 15 | 295 | 0.0 | 3.2 | 0.00 | 0.03 | 0.00 | 75 | 1007.9 |
| 20260506082401 | 14 | 272 | 0.0 | 3.2 | 0.00 | 0.03 | 0.00 | 75 | 1007.9 |
| 20260506081902 | 14 | 265 | 0.0 | 3.2 | 0.00 | 0.03 | 0.00 | 75 | 1007.8 |
| 20260506081402 | 14 | 307 | 1.6 | 3.2 | 0.00 | 0.03 | 0.00 | 74 | 1007.9 |
| 20260506080904 | 14 | 1 | 0.0 | 4.8 | 0.00 | 0.03 | 0.00 | 76 | 1007.8 |
| 20260506080402 | 13 | 268 | 0.0 | 4.8 | 0.00 | 0.03 | 0.00 | 76 | 1007.7 |
| 20260506073402 | 13 | 254 | 1.6 | 4.8 | 0.00 | 0.03 | 0.00 | 79 | 1008.1 |
| 20260506072903 | 13 | 278 | 0.0 | 4.8 | 0.00 | 0.03 | 0.00 | 80 | 1008.2 |
| 20260506072403 | 13 | 241 | 1.6 | 3.2 | 0.00 | 0.03 | 0.00 | 80 | 1008.3 |
| 20260506071902 | 13 | 224 | 1.6 | 3.2 | 0.00 | 0.03 | 0.00 | 80 | 1008.2 |
| 20260506071403 | 13 | 230 | 1.6 | 6.4 | 0.00 | 0.03 | 0.00 | 80 | 1008.3 |
| 20260506070902 | 12 | 155 | 1.6 | 6.4 | 0.00 | 0.03 | 0.00 | 81 | 1008.3 |
| 20260506070403 | 12 | 221 | 3.2 | 6.4 | 0.00 | 0.03 | 0.00 | 81 | 1008.5 |
| 20260506062404 | 11 | 220 | 1.6 | 4.8 | 0.00 | 0.03 | 0.00 | 85 | 1008.1 |
| 20260506061903 | 11 | 203 | 1.6 | 4.8 | 0.00 | 0.03 | 0.00 | 85 | 1008.2 |
| 20260506061402 | 11 | 210 | 1.6 | 6.4 | 0.00 | 0.03 | 0.00 | 86 | 1008.3 |
| 20260506060903 | 11 | 244 | 3.2 | 6.4 | 0.00 | 0.03 | 0.00 | 86 | 1008.5 |
| 20260506060403 | 11 | 202 | 1.6 | 8.0 | 0.00 | 0.03 | 0.00 | 87 | 1008.3 |
| 20260506051402 | 8 | 226 | 0.0 | 3.2 | 0.00 | 0.03 | 0.00 | 92 | 1008.3 |
| 20260506050901 | 8 | 219 | 0.0 | 3.2 | 0.00 | 0.03 | 0.00 | 93 | 1008.5 |
| 20260506050404 | 8 | 148 | 1.6 | 1.6 | 0.00 | 0.03 | 0.00 | 93 | 1008.6 |
| 20260506044859 | 8 | 168 | 0.0 | 1.6 | 0.00 | 0.03 | 0.00 | 93 | 1008.6 |
| 20260506044357 | 8 | 161 | 0.0 | 1.6 | 0.00 | 0.03 | 0.00 | 93 | 1008.5 |
| 20260506043857 | 7 | 161 | 0.0 | 0.0 | 0.00 | 0.03 | 0.00 | 93 | 1008.6 |
| 20260506043357 | 7 | 204 | 0.0 | 0.0 | 0.00 | 0.03 | 0.00 | 93 | 1008.6 |
| 20260506042855 | 7 | 204 | 0.0 | 0.0 | 0.00 | 0.03 | 0.00 | 93 | 1008.7 |
| 20260506042358 | 7 | 204 | 0.0 | 0.0 | 0.00 | 0.03 | 0.00 | 93 | 1008.8 |
| 20260506041851 | 7 | 204 | 0.0 | 0.0 | 0.00 | 0.03 | 0.00 | 92 | 1008.8 |
| 20260506041355 | 8 | 204 | 0.0 | 1.6 | 0.00 | 0.03 | 0.00 | 92 | 1008.9 |
| 20260506040855 | 8 | 204 | 0.0 | 1.6 | 0.00 | 0.03 | 0.00 | 93 | 1008.8 |
| 20260506040355 | 8 | 197 | 0.0 | 1.6 | 0.00 | 0.03 | 0.00 | 93 | 1008.9 |
| 20260506035852 | 8 | 196 | 0.0 | 0.0 | 0.00 | 0.03 | 0.00 | 93 | 1009.0 |
| 20260506035350 | 8 | 197 | 0.0 | 0.0 | 0.00 | 0.03 | 0.00 | 93 | 1009.0 |
| 20260506034853 | 8 | 196 | 0.0 | 0.0 | 0.00 | 0.03 | 0.00 | 92 | 1009.1 |
| 20260506034350 | 8 | 196 | 0.0 | 3.2 | 0.00 | 0.03 | 0.00 | 92 | 1009.1 |
| 20260506033849 | 8 | 197 | 0.0 | 4.8 | 0.00 | 0.03 | 0.00 | 92 | 1009.1 |
| 20260506033349 | 8 | 196 | 1.6 | 4.8 | 0.00 | 0.03 | 0.00 | 92 | 1009.2 |
| 20260506032848 | 8 | 152 | 0.0 | 3.2 | 0.00 | 0.03 | 0.00 | 92 | 1009.2 |
| 20260506032348 | 8 | 166 | 0.0 | 1.6 | 0.00 | 0.03 | 0.00 | 92 | 1009.1 |
| 20260506031849 | 8 | 149 | 0.0 | 3.2 | 0.00 | 0.03 | 0.00 | 92 | 1009.2 |
| 20260506031345 | 8 | 138 | 1.6 | 3.2 | 0.00 | 0.03 | 0.00 | 92 | 1009.1 |
| 20260506030844 | 8 | 155 | 0.0 | 3.2 | 0.00 | 0.03 | 0.00 | 92 | 1009.2 |
| 20260506030345 | 8 | 172 | 1.6 | 3.2 | 0.00 | 0.03 | 0.00 | 92 | 1009.2 |
| 20260506025843 | 8 | 157 | 1.6 | 3.2 | 0.00 | 0.03 | 0.00 | 92 | 1009.2 |
| 20260506025342 | 8 | 171 | 0.0 | 3.2 | 0.00 | 0.03 | 0.00 | 92 | 1009.3 |
| 20260506024839 | 8 | 165 | 0.0 | 4.8 | 0.00 | 0.03 | 0.00 | 92 | 1009.3 |
| 20260506024337 | 8 | 169 | 1.6 | 4.8 | 0.00 | 0.03 | 0.00 | 92 | 1009.3 |
| 20260506023839 | 8 | 164 | 1.6 | 3.2 | 0.00 | 0.03 | 0.00 | 92 | 1009.3 |
| 20260506023338 | 8 | 162 | 0.0 | 1.6 | 0.00 | 0.03 | 0.00 | 92 | 1009.3 |
| 20260506022836 | 8 | 162 | 0.0 | 3.2 | 0.00 | 0.03 | 0.00 | 92 | 1009.4 |
| 20260506022333 | 8 | 154 | 0.0 | 4.8 | 0.00 | 0.03 | 0.00 | 92 | 1009.5 |
| 20260506021335 | 8 | 157 | 3.2 | 4.8 | 0.00 | 0.03 | 0.00 | 91 | 1009.6 |
| 20260506020834 | 8 | 155 | 0.0 | 3.2 | 0.00 | 0.03 | 0.00 | 91 | 1009.5 |
| 20260506020332 | 8 | 196 | 0.0 | 3.2 | 0.00 | 0.03 | 0.00 | 91 | 1009.4 |
| 20260506015831 | 8 | 214 | 0.0 | 4.8 | 0.00 | 0.03 | 0.00 | 91 | 1009.4 |
| 20260506015332 | 8 | 164 | 3.2 | 4.8 | 0.00 | 0.03 | 0.00 | 91 | 1009.4 |
| 20260506014832 | 8 | 159 | 1.6 | 3.2 | 0.00 | 0.03 | 0.00 | 91 | 1009.4 |
| 20260506014331 | 9 | 234 | 0.0 | 3.2 | 0.00 | 0.03 | 0.00 | 91 | 1009.5 |
| 20260506013831 | 9 | 245 | 0.0 | 3.2 | 0.00 | 0.03 | 0.00 | 92 | 1009.4 |
| 20260506013330 | 8 | 250 | 1.6 | 3.2 | 0.00 | 0.03 | 0.00 | 92 | 1009.4 |
| 20260506012830 | 8 | 251 | 0.0 | 1.6 | 0.00 | 0.03 | 0.00 | 91 | 1009.6 |
| 20260506012333 | 8 | 251 | 0.0 | 1.6 | 0.00 | 0.03 | 0.00 | 91 | 1009.7 |
| 20260506011829 | 9 | 226 | 0.0 | 1.6 | 0.00 | 0.03 | 0.00 | 91 | 1009.7 |
| 20260506011330 | 9 | 203 | 0.0 | 1.6 | 0.00 | 0.03 | 0.00 | 91 | 1009.8 |
| 20260506010830 | 9 | 203 | 0.0 | 1.6 | 0.00 | 0.03 | 0.00 | 91 | 1009.8 |
| 20260506010329 | 9 | 200 | 0.0 | 0.0 | 0.00 | 0.03 | 0.00 | 91 | 1009.8 |
| 20260506005829 | 9 | 200 | 0.0 | 3.2 | 0.00 | 0.03 | 0.00 | 91 | 1009.7 |
| 20260506005330 | 9 | 200 | 0.0 | 3.2 | 0.00 | 0.03 | 0.00 | 91 | 1009.8 |
| 20260506004830 | 9 | 230 | 1.6 | 4.8 | 0.00 | 0.03 | 0.00 | 91 | 1009.8 |
| 20260506004330 | 9 | 207 | 1.6 | 4.8 | 0.00 | 0.03 | 0.00 | 90 | 1009.8 |
| 20260506003828 | 9 | 230 | 1.6 | 3.2 | 0.00 | 0.03 | 0.00 | 90 | 1009.7 |
| 20260506003332 | 9 | 243 | 0.0 | 1.6 | 0.00 | 0.03 | 0.00 | 90 | 1009.7 |
| 20260506002828 | 9 | 237 | 0.0 | 1.6 | 0.00 | 0.03 | 0.00 | 90 | 1009.7 |
| 20260506002321 | 9 | 254 | 0.0 | 3.2 | 0.00 | 0.03 | 0.00 | 90 | 1009.8 |
| 20260506001823 | 9 | 255 | 0.0 | 3.2 | 0.00 | 0.03 | 0.00 | 90 | 1009.9 |
| 20260506001322 | 9 | 243 | 3.2 | 4.8 | 0.00 | 0.03 | 0.00 | 90 | 1009.9 |
| 20260506000820 | 9 | 243 | 1.6 | 4.8 | 0.00 | 0.03 | 0.00 | 90 | 1010.0 |
| 20260506000322 | 9 | 240 | 1.6 | 3.2 | 0.00 | 0.03 | 0.00 | 89 | 1010.1 |
| 20260505235819 | 10 | 252 | 3.2 | 3.2 | 0.00 | 0.03 | 0.00 | 89 | 1010.0 |
| 20260505235318 | 10 | 241 | 1.6 | 1.6 | 0.00 | 0.03 | 0.00 | 89 | 1010.1 |
| 20260505234814 | 10 | 279 | 0.0 | 1.6 | 0.00 | 0.03 | 0.00 | 88 | 1010.1 |
| 20260505234313 | 10 | 279 | 1.6 | 4.8 | 0.00 | 0.03 | 0.00 | 89 | 1010.2 |
| 20260505233811 | 10 | 250 | 1.6 | 4.8 | 0.00 | 0.03 | 0.00 | 89 | 1010.2 |
| 20260505233307 | 10 | 248 | 1.6 | 3.2 | 0.00 | 0.03 | 0.00 | 89 | 1010.3 |
| 20260505232804 | 10 | 231 | 0.0 | 3.2 | 0.00 | 0.03 | 0.00 | 88 | 1010.3 |
| 20260505232305 | 10 | 247 | 0.0 | 4.8 | 0.00 | 0.03 | 0.00 | 88 | 1010.2 |
| 20260505231802 | 10 | 248 | 0.0 | 4.8 | 0.00 | 0.03 | 0.00 | 88 | 1010.2 |
| 20260505231304 | 10 | 248 | 1.6 | 4.8 | 0.00 | 0.03 | 0.00 | 87 | 1010.3 |
| 20260505230803 | 10 | 258 | 1.6 | 4.8 | 0.00 | 0.03 | 0.00 | 87 | 1010.4 |
| 20260505230303 | 10 | 245 | 0.0 | 4.8 | 0.00 | 0.03 | 0.00 | 87 | 1010.4 |
| 20260505225804 | 10 | 252 | 1.6 | 3.2 | 0.00 | 0.03 | 0.00 | 86 | 1010.6 |
| 20260505225305 | 11 | 251 | 0.0 | 3.2 | 0.00 | 0.03 | 0.00 | 86 | 1010.6 |
| 20260505224801 | 11 | 244 | 0.0 | 3.2 | 0.00 | 0.03 | 0.00 | 86 | 1010.6 |
| 20260505224301 | 11 | 244 | 1.6 | 3.2 | 0.00 | 0.03 | 0.00 | 85 | 1010.6 |
| 20260505223802 | 11 | 252 | 0.0 | 3.2 | 0.00 | 0.03 | 0.00 | 85 | 1010.4 |
| 20260505223302 | 11 | 262 | 1.6 | 4.8 | 0.00 | 0.03 | 0.00 | 85 | 1010.4 |
| 20260505222802 | 11 | 231 | 3.2 | 6.4 | 0.00 | 0.03 | 0.00 | 84 | 1010.4 |
| 20260505222305 | 11 | 271 | 3.2 | 6.4 | 0.00 | 0.03 | 0.00 | 84 | 1010.4 |
| 20260505221812 | 11 | 220 | 0.0 | 6.4 | 0.00 | 0.03 | 0.00 | 84 | 1010.4 |
| 20260505221312 | 11 | 274 | 1.6 | 6.4 | 0.00 | 0.03 | 0.00 | 84 | 1010.4 |
| 20260505220814 | 11 | 281 | 1.6 | 8.0 | 0.00 | 0.03 | 0.00 | 83 | 1010.4 |
| 20260505220308 | 12 | 259 | 1.6 | 9.7 | 0.00 | 0.03 | 0.00 | 83 | 1010.6 |
| 20260505215759 | 12 | 283 | 3.2 | 11.3 | 0.00 | 0.03 | 0.03 | 83 | 1010.4 |
| 20260505215309 | 12 | 264 | 3.2 | 11.3 | 0.00 | 0.03 | 0.03 | 83 | 1010.4 |
| 20260505214757 | 12 | 251 | 3.2 | 9.7 | 0.00 | 0.03 | 0.03 | 83 | 1010.4 |
| 20260505214301 | 12 | 248 | 3.2 | 9.7 | 0.00 | 0.03 | 0.03 | 83 | 1010.3 |
| 20260505213801 | 12 | 209 | 4.8 | 9.7 | 0.00 | 0.03 | 0.03 | 83 | 1010.3 |
| 20260505213306 | 12 | 261 | 3.2 | 11.3 | 0.00 | 0.03 | 0.03 | 82 | 1010.2 |
| 20260505212802 | 12 | 266 | 4.8 | 14.5 | 0.00 | 0.03 | 0.03 | 82 | 1010.3 |
| 20260505212246 | 12 | 296 | 4.8 | 16.1 | 0.00 | 0.03 | 0.03 | 82 | 1010.2 |
| 20260505211745 | 12 | 268 | 4.8 | 16.1 | 0.00 | 0.03 | 0.03 | 82 | 1010.1 |
| 20260505211246 | 12 | 266 | 6.4 | 19.3 | 0.00 | 0.03 | 0.03 | 81 | 1010.1 |
| 20260505210744 | 12 | 231 | 6.4 | 19.3 | 0.00 | 0.03 | 0.03 | 81 | 1010.1 |
| 20260505210242 | 12 | 254 | 3.2 | 14.5 | 0.00 | 0.03 | 0.03 | 82 | 1010.0 |
| 20260505205743 | 12 | 203 | 3.2 | 14.5 | 0.00 | 0.03 | 0.03 | 81 | 1010.0 |
| 20260505205237 | 12 | 157 | 4.8 | 14.5 | 0.00 | 0.03 | 0.03 | 82 | 1010.1 |
| 20260505204737 | 13 | 261 | 4.8 | 14.5 | 0.00 | 0.03 | 0.03 | 81 | 1010.2 |
| 20260505204238 | 13 | 212 | 3.2 | 9.7 | 0.00 | 0.03 | 0.03 | 81 | 1010.1 |
| 20260505203734 | 13 | 220 | 1.6 | 11.3 | 0.00 | 0.03 | 0.03 | 81 | 1010.2 |
| 20260505203234 | 13 | 289 | 6.4 | 11.3 | 0.00 | 0.03 | 0.03 | 80 | 1010.2 |
| 20260505202736 | 13 | 310 | 4.8 | 14.5 | 0.00 | 0.03 | 0.03 | 81 | 1010.2 |
| 20260505202234 | 13 | 237 | 4.8 | 14.5 | 0.00 | 0.03 | 0.03 | 80 | 1010.3 |
| 20260505201732 | 13 | 283 | 3.2 | 16.1 | 0.00 | 0.03 | 0.03 | 81 | 1010.3 |
| 20260505201233 | 13 | 234 | 6.4 | 16.1 | 0.00 | 0.03 | 0.03 | 80 | 1010.3 |
| 20260505200732 | 13 | 220 | 3.2 | 16.1 | 0.00 | 0.03 | 0.03 | 80 | 1010.3 |
| 20260505200229 | 13 | 261 | 4.8 | 19.3 | 0.00 | 0.03 | 0.03 | 79 | 1010.3 |
| 20260505195729 | 14 | 244 | 8.0 | 19.3 | 0.00 | 0.03 | 0.03 | 77 | 1010.3 |
| 20260505195230 | 15 | 299 | 11.3 | 30.6 | 0.00 | 0.03 | 0.03 | 74 | 1010.2 |
| 20260505194729 | 15 | 289 | 14.5 | 30.6 | 0.00 | 0.03 | 0.03 | 73 | 1010.1 |
| 20260505194229 | 15 | 300 | 9.7 | 25.7 | 0.00 | 0.03 | 0.03 | 72 | 1010.1 |
| 20260505193732 | 15 | 266 | 11.3 | 24.1 | 0.00 | 0.03 | 0.03 | 70 | 1009.8 |
| 20260505193220 | 15 | 276 | 4.8 | 11.3 | 0.00 | 0.03 | 0.03 | 70 | 1009.7 |
| 20260505192719 | 15 | 293 | 1.6 | 8.0 | 0.00 | 0.03 | 0.03 | 70 | 1009.6 |
| 20260505192220 | 15 | 257 | 1.6 | 9.7 | 0.00 | 0.03 | 0.03 | 70 | 1009.5 |
| 20260505191717 | 15 | 283 | 4.8 | 9.7 | 0.00 | 0.03 | 0.03 | 70 | 1009.3 |
| 20260505191217 | 15 | 265 | 3.2 | 9.7 | 0.00 | 0.03 | 0.03 | 71 | 1009.2 |
| 20260505190718 | 15 | 272 | 0.0 | 3.2 | 0.00 | 0.03 | 0.03 | 71 | 1009.2 |
| 20260505190218 | 15 | 235 | 1.6 | 3.2 | 0.00 | 0.03 | 0.03 | 71 | 1009.1 |
| 20260505185716 | 15 | 243 | 0.0 | 3.2 | 0.00 | 0.03 | 0.03 | 72 | 1009.2 |
| 20260505185216 | 15 | 257 | 0.0 | 3.2 | 0.00 | 0.03 | 0.03 | 72 | 1009.1 |
| 20260505184714 | 15 | 248 | 0.0 | 1.6 | 0.00 | 0.03 | 0.03 | 72 | 1009.1 |
| 20260505184211 | 15 | 248 | 0.0 | 1.6 | 0.00 | 0.03 | 0.03 | 72 | 1009.0 |
| 20260505183710 | 15 | 250 | 0.0 | 1.6 | 0.00 | 0.03 | 0.03 | 71 | 1009.0 |
| 20260505183213 | 15 | 250 | 0.0 | 1.6 | 0.00 | 0.03 | 0.03 | 70 | 1009.0 |
| 20260505182710 | 15 | 250 | 0.0 | 1.6 | 0.00 | 0.03 | 0.03 | 70 | 1009.0 |
| 20260505182212 | 15 | 250 | 0.0 | 1.6 | 0.00 | 0.03 | 0.03 | 69 | 1008.9 |
| 20260505181709 | 16 | 250 | 0.0 | 1.6 | 0.00 | 0.03 | 0.03 | 68 | 1008.9 |
| 20260505181208 | 16 | 259 | 0.0 | 3.2 | 0.00 | 0.03 | 0.03 | 68 | 1008.8 |
| 20260505180704 | 16 | 302 | 0.0 | 3.2 | 0.00 | 0.03 | 0.03 | 68 | 1008.6 |
| 20260505180204 | 16 | 278 | 1.6 | 3.2 | 0.00 | 0.03 | 0.03 | 67 | 1008.6 |
| 20260505175701 | 16 | 272 | 0.0 | 4.8 | 0.00 | 0.03 | 0.03 | 67 | 1008.6 |
| 20260505175203 | 16 | 309 | 3.2 | 4.8 | 0.00 | 0.03 | 0.03 | 66 | 1008.8 |
| 20260505174702 | 16 | 252 | 0.0 | 4.8 | 0.00 | 0.03 | 0.03 | 66 | 1008.7 |
| 20260505174203 | 16 | 264 | 3.2 | 4.8 | 0.00 | 0.03 | 0.03 | 66 | 1008.6 |
| 20260505173701 | 16 | 312 | 1.6 | 4.8 | 0.00 | 0.03 | 0.03 | 66 | 1008.6 |
| 20260505173201 | 16 | 307 | 1.6 | 6.4 | 0.00 | 0.03 | 0.03 | 64 | 1008.5 |
| 20260505172701 | 16 | 310 | 3.2 | 6.4 | 0.00 | 0.03 | 0.03 | 65 | 1008.5 |
| 20260505172200 | 16 | 323 | 1.6 | 4.8 | 0.00 | 0.03 | 0.03 | 64 | 1008.5 |
| 20260505171701 | 16 | 299 | 1.6 | 4.8 | 0.00 | 0.03 | 0.03 | 64 | 1008.3 |
| 20260505171200 | 16 | 290 | 1.6 | 4.8 | 0.00 | 0.03 | 0.03 | 64 | 1008.3 |
| 20260505170702 | 16 | 276 | 1.6 | 6.4 | 0.00 | 0.03 | 0.03 | 62 | 1008.3 |
| 20260505170159 | 17 | 310 | 3.2 | 6.4 | 0.00 | 0.03 | 0.03 | 60 | 1008.2 |
| 20260505165659 | 17 | 305 | 3.2 | 8.0 | 0.00 | 0.03 | 0.03 | 61 | 1008.1 |
| 20260505165200 | 17 | 25 | 4.8 | 8.0 | 0.00 | 0.03 | 0.03 | 60 | 1008.1 |
| 20260505164700 | 17 | 48 | 0.0 | 3.2 | 0.00 | 0.03 | 0.03 | 61 | 1008.2 |
| 20260505164156 | 17 | 286 | 0.0 | 4.8 | 0.00 | 0.03 | 0.03 | 60 | 1008.3 |
| 20260505163657 | 17 | 343 | 1.6 | 4.8 | 0.00 | 0.03 | 0.03 | 61 | 1008.7 |
| 20260505163154 | 17 | 285 | 1.6 | 4.8 | 0.00 | 0.03 | 0.03 | 62 | 1008.7 |
| 20260505162653 | 17 | 292 | 1.6 | 4.8 | 0.00 | 0.03 | 0.03 | 60 | 1008.7 |
| 20260505162151 | 16 | 330 | 1.6 | 8.0 | 0.00 | 0.03 | 0.03 | 61 | 1008.6 |
| 20260505161651 | 16 | 255 | 4.8 | 8.0 | 0.00 | 0.03 | 0.03 | 62 | 1008.7 |
| 20260505161151 | 17 | 310 | 3.2 | 6.4 | 0.00 | 0.03 | 0.03 | 62 | 1008.7 |
| 20260505160650 | 17 | 307 | 3.2 | 6.4 | 0.00 | 0.03 | 0.03 | 62 | 1008.7 |
| 20260505160152 | 17 | 288 | 1.6 | 6.4 | 0.00 | 0.03 | 0.03 | 62 | 1008.7 |
| 20260505153142 | 16 | 319 | 6.4 | 11.3 | 0.00 | 0.03 | 0.03 | 62 | 1008.6 |
| 20260505152641 | 16 | 296 | 3.2 | 9.7 | 0.00 | 0.03 | 0.03 | 65 | 1008.7 |
| 20260505152139 | 16 | 276 | 3.2 | 9.7 | 0.00 | 0.03 | 0.03 | 66 | 1008.8 |
| 20260505151640 | 16 | 312 | 3.2 | 8.0 | 0.00 | 0.03 | 0.03 | 65 | 1008.7 |
| 20260505151138 | 16 | 13 | 3.2 | 14.5 | 0.00 | 0.03 | 0.03 | 65 | 1008.6 |
| 20260505150636 | 16 | 345 | 1.6 | 14.5 | 0.00 | 0.03 | 0.03 | 66 | 1008.7 |
| 20260505150138 | 16 | 44 | 6.4 | 11.3 | 0.00 | 0.03 | 0.03 | 65 | 1008.7 |
| 20260505140629 | 17 | 324 | 3.2 | 8.0 | 0.00 | 0.03 | 0.03 | 68 | 1008.7 |
| 20260505140130 | 17 | 353 | 3.2 | 9.7 | 0.00 | 0.03 | 0.03 | 70 | 1008.8 |
| 20260505130112 | 16 | 303 | 3.2 | 6.4 | 0.03 | 0.03 | 0.03 | 78 | 1009.5 |
| 20260505124606 | 16 | 290 | 3.2 | 8.0 | 0.03 | 0.00 | 0.03 | 76 | 1009.6 |
| 20260505124104 | 16 | 289 | 3.2 | 9.7 | 0.03 | 0.00 | 0.03 | 74 | 1009.7 |
| 20260505123605 | 16 | 299 | 6.4 | 11.3 | 0.03 | 0.00 | 0.03 | 73 | 1009.7 |
| 20260505123103 | 17 | 264 | 3.2 | 11.3 | 0.00 | 0.00 | 0.00 | 72 | 1009.8 |
| 20260505122603 | 17 | 307 | 6.4 | 14.5 | 0.00 | 0.00 | 0.00 | 66 | 1009.8 |
| 20260505122104 | 18 | 326 | 6.4 | 14.5 | 0.00 | 0.00 | 0.00 | 60 | 1009.7 |
| 20260505121601 | 18 | 282 | 6.4 | 14.5 | 0.00 | 0.00 | 0.00 | 58 | 1009.7 |
| 20260505121102 | 18 | 266 | 3.2 | 9.7 | 0.00 | 0.00 | 0.00 | 58 | 1009.5 |
| 20260505120602 | 18 | 261 | 3.2 | 9.7 | 0.00 | 0.00 | 0.00 | 59 | 1009.5 |
| 20260505115602 | 18 | 303 | 6.4 | 14.5 | 0.00 | 0.00 | 0.00 | 57 | 1009.3 |
| 20260505115101 | 18 | 312 | 9.7 | 14.5 | 0.00 | 0.00 | 0.00 | 60 | 1009.4 |
| 20260505114603 | 18 | 293 | 8.0 | 11.3 | 0.00 | 0.00 | 0.00 | 63 | 1009.3 |
| 20260505114101 | 18 | 292 | 6.4 | 11.3 | 0.00 | 0.00 | 0.00 | 62 | 1009.2 |
| 20260505113603 | 18 | 283 | 4.8 | 8.0 | 0.00 | 0.00 | 0.00 | 64 | 1009.2 |
| 20260505113101 | 18 | 268 | 3.2 | 9.7 | 0.00 | 0.00 | 0.00 | 65 | 1009.3 |
| 20260505112600 | 18 | 290 | 6.4 | 9.7 | 0.00 | 0.00 | 0.00 | 65 | 1009.2 |
| 20260505112101 | 18 | 275 | 4.8 | 9.7 | 0.00 | 0.00 | 0.00 | 65 | 1009.1 |
| 20260505111601 | 18 | 319 | 3.2 | 9.7 | 0.00 | 0.00 | 0.00 | 67 | 1009.1 |
| 20260505111100 | 18 | 302 | 4.8 | 9.7 | 0.00 | 0.00 | 0.00 | 67 | 1009.0 |
| 20260505110600 | 18 | 310 | 6.4 | 9.7 | 0.00 | 0.00 | 0.00 | 66 | 1009.1 |
| 20260505102100 | 18 | 312 | 6.4 | 9.7 | 0.00 | 0.00 | 0.00 | 59 | 1009.3 |
| 20260505101601 | 18 | 299 | 4.8 | 8.0 | 0.00 | 0.00 | 0.00 | 58 | 1009.3 |
| 20260505101101 | 19 | 27 | 4.8 | 6.4 | 0.00 | 0.00 | 0.00 | 57 | 1009.3 |
| 20260505100601 | 19 | 305 | 1.6 | 6.4 | 0.00 | 0.00 | 0.00 | 58 | 1009.4 |
| 20260505100101 | 19 | 345 | 3.2 | 11.3 | 0.00 | 0.00 | 0.00 | 59 | 1009.4 |
| 20260505095600 | 19 | 309 | 6.4 | 11.3 | 0.00 | 0.00 | 0.00 | 57 | 1009.4 |
| 20260505095100 | 19 | 309 | 3.2 | 11.3 | 0.00 | 0.00 | 0.00 | 59 | 1009.5 |
| 20260505094601 | 19 | 0 | 6.4 | 11.3 | 0.00 | 0.00 | 0.00 | 59 | 1009.4 |
| 20260505094101 | 19 | 324 | 4.8 | 9.7 | 0.00 | 0.00 | 0.00 | 59 | 1009.5 |
| 20260505093602 | 18 | 148 | 1.6 | 4.8 | 0.00 | 0.00 | 0.00 | 61 | 1009.6 |
| 20260505093100 | 18 | 78 | 1.6 | 3.2 | 0.00 | 0.00 | 0.00 | 61 | 1009.6 |
| 20260505092602 | 18 | 18 | 0.0 | 6.4 | 0.00 | 0.00 | 0.00 | 62 | 1009.7 |